Location: ?ern� Novina
(50.6762°N, 14.8696°E)
Time: 02:23:20
(UTC+00:00)

Meteor 1-18 Rocket - Pass Details

Date: 03 March 2021
Orbit: 836 x 909 km, 81.2° (Epoch: 13 April)

Event Time Altitude Azimuth Distance (km) Brightness Sun altitude
Rises 17:46:43 0° 347° (NNW) 3,551 7.7 -10.5°
Reaches altitude 10° 17:49:12 10° 347° (NNW) 2,607 7.0 -10.9°
Maximum altitude 17:55:10 86° 260° (W) 918 4.4 -11.8°
Drops below altitude 10° 18:01:05 10° 172° (S) 2,576 6.6 -12.8°
Sets 18:03:31 0° 172° (S) 3,506 7.3 -13.1°
